Location: Columbia, SC
(34.0000°N, 81.0300°W)
Time: 19:06:21
(UTC-05:00)

Tiangong 1 - Visible Passes

Search period start: 06 March 2015 00:00
Search period end: 16 March 2015 01:00
Orbit: 347 x 360 km, 42.8° (Epoch: 06 March)

Date Brightness Start Highest point End Pass type
(mag) Time Alt. Az. Time Alt. Az. Time Alt. Az.
06 Mar 3.7 04:51:39 16° NE 04:51:39 16° NE 04:52:29 10° NE visible
07 Mar 3.0 05:16:53 18° N 05:16:53 18° N 05:18:43 10° NE visible
08 Mar 3.3 06:41:58 12° NNW 06:43:18 15° N 06:45:05 10° NE visible
09 Mar 3.3 07:08:02 10° NW 07:09:59 16° N 07:11:56 10° NE visible
10 Mar 3.6 06:00:16 14° N 06:00:16 14° N 06:01:35 10° NE visible
11 Mar 3.2 06:25:03 14° NNW 06:26:17 17° N 06:28:21 10° NE visible
12 Mar 2.6 06:49:55 10° NW 06:52:32 28° NNE 06:55:08 10° E visible
13 Mar 3.6 05:42:57 17° NNE 05:42:57 17° NNE 05:44:19 10° ENE visible
14 Mar 2.3 06:07:39 30° N 06:08:09 32° NNE 06:10:51 10° E visible
15 Mar 0.8 06:32:21 26° WNW 06:33:50 88° SW 06:36:46 10° ESE visible
